Preview of NWS' New Version of Forecast
This preview is not operational and should not be used for support decisions.

Regional Weather Roundup (RWR)

Issued by National Weather Service (NWS)

                            
000
ASUS42 KTBW 220215
RWRFL 
FLORIDA REGIONAL WEATHER ROUNDUP
NATIONAL WEATHER SERVICE TAMPA BAY RUSKIN FL
1000 PM EDT SUN APR 21 2019

NOTE: "FAIR" INDICATES FEW OR NO CLOUDS BELOW 12,000 FEET WITH NO
SIGNIFICANT WEATHER AND/OR OBSTRUCTIONS TO VISIBILITY.

FLZ001>010-012>015-112-114-115-220300-
PANHANDLE FLORIDA
  
CITY           SKY/WX    TMP DP  RH WIND       PRES   REMARKS
PENSACOLA      FAIR      65  46  50 W7        30.16R                  
PENSACOLA NAS  FAIR      59  48  67 SW3       30.16R                  
MILTON NAS     FAIR      60  45  57 W5        30.16R                  
CRESTVIEW      FAIR      57  45  64 CALM      30.17R                  
DUKE FIELD     FAIR      61  43  51 S3        30.16R                  
VALPARAISO     FAIR      63  47  55 CALM      30.16R                  
MARY ESTHER    CLEAR     66  48  51 W5        30.15R                  
PANAMA CITY    FAIR      60  46  59 W3        30.15R                  
TYNDALL AFB    FAIR      64  48  56 W6        30.15R                  
APALACHICOLA   FAIR      59  43  55 W3        30.16R                  

STATION/POSITION SKY/WX   TEMP    WIND        PRES    WAVE   SWELL
                          AIR SEA DIR/SP/G            HT/PER HT/PER
                          (F)     (DEG/KT/KT) (MB)    (FT/S) (FT/S)
30.1N   87.6W                                 1021.5R
29.2N   88.2W                     150/  2/  4 1022.0R
PANAMA CITY BEAC           68 70  270/ 12/ 13 1021.4R
TOWER C          NOT AVBL

$$
FLZ011-016>038-118-127-128-134-139-239-220300-
NORTH FLORIDA
  
CITY           SKY/WX    TMP DP  RH WIND       PRES   REMARKS
MARIANNA       FAIR      62  50  64 CALM      30.13R                  
TALLAHASSEE    FAIR      60  48  64 CALM      30.15R                  
PERRY          FAIR      59  48  66 CALM      30.17R                  
LIVE OAK       CLEAR     57  46  67 CALM      30.16R                  
CROSS CITY     FAIR      54  46  74 CALM      30.17R                  
LAKE CITY      FAIR      55  45  67 CALM      30.15R                  
GAINESVILLE    FAIR      62  46  55 W6        30.17R                  
PALATKA        FAIR     N/A N/A N/A CALM      30.14R                  
MAYPORT NAS    FAIR      67  45  45 N3        30.14R                  
JACKSONVILLE   FAIR      58  45  62 CALM      30.13R                  
JAX NAS        FAIR      70  39  32 W3        30.15R                  
JAX CECIL      NOT AVBL                                               
FERNANDINA BEA FAIR      60  46  59 CALM      30.14R                  
ST AUGUSTINE   FAIR      63  53  70 CALM      30.15                   
PALM COAST     FAIR      60  51  71 CALM      30.15R                  

STATION/POSITION SKY/WX   TEMP    WIND        PRES    WAVE   SWELL
                          AIR SEA DIR/SP/G            HT/PER HT/PER
                          (F)     (DEG/KT/KT) (MB)    (FT/S) (FT/S)
SHELL POINT                68 67  230/ 12/ 15 1019.7
KEATON BEACH               68     260/ 10/ 11 1020.9R
CEDAR KEY                  67     280/  4/  5 1020.7R
FERNANDINA                 66 69   CALM  /  1 1021.0R
30.7N   81.3W                 67                N/A     2/ 9
MAYPORT                    69 68  340/  4/  5 1020.5R
31.4N   80.9W              68 67   60/  2/  2 1020.3R   2/ 8   2/ 8
ST AUGUSTINE               70 74  160/  9/ 10 1020.2R

$$
FLZ040-043>046-052-053-057-058-063-144-220300-
INTERIOR CENTRAL FLORIDA
  
CITY           SKY/WX    TMP DP  RH WIND       PRES   REMARKS
OCALA          FAIR      60  47  61 SW3       30.17R                  
LEESBURG       FAIR      64  46  52 W8        30.16R                  
SANFORD        FAIR      63  50  62 E7        30.14R                  
ORLANDO EXEC   FAIR      70  43  37 NW8       30.14R                  
ORLANDO INTL   FAIR      67  44  43 N3        30.15R                  
KISSIMMEE      FAIR      66  46  48 NW6       30.16R                  
WINTER HAVEN   FAIR      65  45  48 NW7       30.16R                  
LAKELAND       CLEAR     63  45  51 NW7       30.16R                  
BARTOW         FAIR      66  46  48 NW5       30.15R                  
SEBRING        FAIR      66  51  57 NW3       30.15R                  
OKEECHOBEE     FAIR      61  52  72 CALM      30.14R                  

$$
FLZ041-047-054-059-064-141-147-220300-
EAST CENTRAL FLORIDA
  
CITY           SKY/WX    TMP DP  RH WIND       PRES   REMARKS
DAYTONA BEACH  FAIR      61  53  75 CALM      30.15R                  
DELAND         FAIR      61  48  63 CALM      30.15R                  
NEW SMYRNA BEA CLEAR     59  52  77 CALM      30.16R                  
JFK SPACE CTR  FAIR      55  49  82 CALM      30.14R                  
CAPE CANAVERAL FAIR      58  48  68 E5        30.13R                  
PATRICK AFB    FAIR      68  52  56 E7        30.14R                  
MELBOURNE      FAIR      68  51  54 E7        30.14R                  
VERO BEACH     FAIR      63  52  67 E5        30.15R                  
FT PIERCE      FAIR      57  51  80 CALM      30.14R                  
STUART         FAIR      68  52  56 E6        30.15R                  

STATION/POSITION SKY/WX   TEMP    WIND        PRES    WAVE   SWELL
                          AIR SEA DIR/SP/G            HT/PER HT/PER
                          (F)     (DEG/KT/KT) (MB)    (FT/S) (FT/S)
28.5N   80.2W                      30/  6/  8 1021.0R   2/ 8   2/ 8
28.9N   78.5W                                 1021.4R   5/ 8   3/ 8
TRIDENT PIER               61 76   30/  4/  5 1021.9R
28.4N   80.5W                 76                N/A     1/ 8
27.5N   80.2W                 75                N/A     2/ 8

$$
FLZ050-056-061-142-242-148-248-149-249-151-251-155-255-
160-260-220300-
WEST CENTRAL FLORIDA
  
CITY           SKY/WX    TMP DP  RH WIND       PRES   REMARKS
CRYSTAL RIVER  FAIR      54  48  82 CALM      30.17R                  
INVERNESS      FAIR      57  50  77 CALM      30.17R                  
BROOKSVILLE    FAIR      57  47  69 CALM      30.17R                  
CLEARWATER AIR FAIR      61  43  51 CALM      30.16R                  
ST PETE CLEARW FAIR      63  44  50 N7        30.16R                  
TAMPA INTL     FAIR      63  47  55 N3        30.17R                  
PLANT CITY     FAIR      64  46  52 NW3       30.18R                  
MACDILL AFB    FAIR      65  44  47 N5        30.16R                  
PETER O KNIGHT MOCLDY    64  48  55 N3        30.17R                  
ST PETERSBURG    N/A    N/A N/A N/A MISG      30.14R                  
SARASOTA       FAIR      64  44  48 N5        30.14R                  
VENICE         FAIR      68  46  45 N7        30.15S                  

STATION/POSITION SKY/WX   TEMP    WIND        PRES    WAVE   SWELL
                          AIR SEA DIR/SP/G            HT/PER HT/PER
                          (F)     (DEG/KT/KT) (MB)    (FT/S) (FT/S)
27.3N   84.2W                 75                N/A     3/ 6
CLEARWATER BEACH           68 74  350/  8/ 10 1021.2R
MIDDLE TAMPA BAY           68     360/ 10/ 13 1021.2R
VENICE                     69 76  350/ 10/ 12 1020.4R

$$
FLZ066-069-070-075>078-162-262-165-265-220300-
SOUTHWEST FLORIDA AND KEYS
  
CITY           SKY/WX    TMP DP  RH WIND       PRES   REMARKS
PUNTA GORDA    FAIR      65  49  56 N10       30.15R                  
FT MYERS       FAIR      68  52  56 W7        30.14R                  
SOUTHWEST INTL FAIR      64  55  72 SW5       30.14R                  
NAPLES         FAIR      71  58  63 NW6       30.14R                  
MARCO ISLAND   FAIR      67  57  70 NW5       30.14R                  
IMMOKALEE      FAIR      66  54  63 W5        30.12R                  
MARATHON       FAIR      75  57  53 NW3       30.12R                  
KEY WEST NAS   FAIR      73  60  63 N3        30.13R                  
KEY WEST INTL  FAIR      72  61  68 N5        30.14R                  

STATION/POSITION SKY/WX   TEMP    WIND        PRES    WAVE   SWELL
                          AIR SEA DIR/SP/G            HT/PER HT/PER
                          (F)     (DEG/KT/KT) (MB)    (FT/S) (FT/S)
NAPLES                     72 77  260/ 10/ 11 1020.4R
DRY TORTUGAS               72      30/  8/ 10 1020.1R
SAND KEY                   72                 1020.3R
SOMBRERO KEY               73                 1019.6R

$$
FLZ067-068-071>074-168-172>174-220300-
SOUTHEAST FLORIDA 
  
CITY           SKY/WX    TMP DP  RH WIND       PRES   REMARKS
W PALM BEACH   FAIR      72  57  59 NE7       30.14R                  
BOCA RATON     PTCLDY    70  59  68 E3        30.13R                  
FT LAUDER-EXEC FAIR      71  57  61 E6        30.13R                  
FT LAUDERDALE  FAIR      72  57  59 E7        30.12R                  
POMPANO BEACH  FAIR      73  57  57 E5        30.13R                  
PEMBROKE PINES FAIR      72  57  59 E5        30.14R                  
OPA LOCKA      FAIR      71  57  61 E6        30.13R                  
MIAMI          FAIR      73  56  54 E9        30.13R                  
WEST KENDALL   FAIR      72  58  61 E7        30.12R                  
HOMESTEAD      FAIR      69  61  76 SE5       30.11R                  

STATION/POSITION SKY/WX   TEMP    WIND        PRES    WAVE   SWELL
                          AIR SEA DIR/SP/G            HT/PER HT/PER
                          (F)     (DEG/KT/KT) (MB)    (FT/S) (FT/S)
PORT EVERGLADES            74      90/  4/  6 1020.2R
VIRGINIA KEY               74 80   90/  6/  8 1019.5R
LAKE WORTH                 72 78   60/  7/ 10 1021.5R
SETTLEMENT POINT           71      50/  9/ 10 1020.7R

$$